Location: *
(47.2969°N, 10.2930°E)
Time: 10:38:50
(UTC+00:00)

Cosmos 2366 rocket - Pass Details

Date: 09 April 2020
Orbit: 955 x 997 km, 82.9° (Epoch: 25 May)

Event Time Altitude Azimuth Distance (km) Brightness Sun altitude
Rises 19:35:56 0° 353° (N) 3,647 7.6 -15.8°
Reaches altitude 10° 19:38:30 10° 358° (N) 2,697 6.8 -16.2°
Maximum altitude 19:44:34 58° 77° (ENE) 1,109 4.1 -17.1°
Enters shadow 19:48:11 25° 148° (SSE) 1,841 4.9 -17.6°
